This is the latest recevied weather packets stored in our database for station/object CE3UOB-10. If no packets are shown the sender has not sent any weather packets the latest 10 day(s).
| Time | Temp. | Humidity | Pressure | Rain* | Wind** | Luminosity | Snow |
|---|---|---|---|---|---|---|---|
| 1777699418 | 8.33° C | 85% | 998.5 hPa | - | - | - | - |
| 1777697625 | 8.89° C | 84% | 998.5 hPa | - | - | - | - |
| 1777697618 | 8.89° C | 84% | 998.5 hPa | - | - | - | - |
| 1777695824 | 9.44° C | 84% | 998.8 hPa | - | - | - | - |
| 1777695818 | 9.44° C | 84% | 998.8 hPa | - | - | - | - |
| 1777694027 | 9.44° C | 84% | 999.1 hPa | - | - | - | - |
| 1777694017 | 9.44° C | 84% | 999.1 hPa | - | - | - | - |
| 1777692859 | 8.89° C | 86% | 999.2 hPa | - | - | - | - |
| 1777691065 | 9.44° C | 85% | 999.4 hPa | - | - | - | - |
| 1777691059 | 9.44° C | 85% | 999.4 hPa | - | - | - | - |
| 1777689265 | 10° C | 84% | 999.4 hPa | - | - | - | - |
| 1777689259 | 10° C | 84% | 999.4 hPa | - | - | - | - |
| 1777687465 | 10.56° C | 88% | 999.5 hPa | - | - | - | - |
| 1777687459 | 10.56° C | 88% | 999.5 hPa | - | - | - | - |
| 1777685665 | 10.56° C | 87% | 999.4 hPa | - | - | - | - |
| 1777685659 | 10.56° C | 87% | 999.4 hPa | - | - | - | - |
| 1777683865 | 11.11° C | 86% | 999.5 hPa | - | - | - | - |
| 1777683859 | 11.11° C | 86% | 999.5 hPa | - | - | - | - |
| 1777682065 | 11.11° C | 88% | 999.5 hPa | - | - | - | - |
| 1777682059 | 11.11° C | 88% | 999.5 hPa | - | - | - | - |
| 1777680265 | 11.67° C | 84% | 999.2 hPa | - | - | - | - |
| 1777680258 | 11.67° C | 84% | 999.2 hPa | - | - | - | - |
| 1777678458 | 12.22° C | 83% | 999.1 hPa | - | - | - | - |
| 1777676665 | 12.78° C | 87% | 999 hPa | - | - | - | - |
| 1777676658 | 12.78° C | 87% | 999 hPa | - | - | - | - |
* Rain since midnight (hover to see other rain measurements)
** Current wind speed in m/s (hover to see current wind gust speed)